Regional Weather Roundup
Issued by NWS

Home | Current Version | Previous Version | Text Only | Print | Product List | Glossary Off
Versions: 1 2 3 4 5 6 7 8 9 10 11 12 13 14 15 16 17 18 19 20 21 22 23 24 25 26 27 28 29 30 31 32 33 34 35 36 37 38 39 40 41 42 43 44 45 46 47 48 49 50

361
ASUS43 KIND 250159
RWRIN

WEATHER ROUNDUP FOR INDIANA
NATIONAL WEATHER SERVICE INDIANAPOLIS IN
1000 PM EDT SUN JUL 24 2016

NOTE: "FAIR" INDICATES FEW OR NO CLOUDS BELOW 12,000 FEET WITH NO
SIGNIFICANT WEATHER AND/OR OBSTRUCTIONS TO VISIBILITY.

* - STATION DOES NOT REPORT WEATHER SUCH AS PRECIPITATION OR FOG.

+ - STATION NOT QUALITY CONTROLLED BY THE NATIONAL WEATHER SERVICE.
    USE DATA WITH CAUTION...ESPECIALLY DEWPOINT AND RELATIVE
    HUMIDITY OBSERVATIONS.

INZ001>003-010>013-019-020-250300-
NORTHWEST INDIANA

CITY           SKY/WX    TMP DP  RH WIND       PRES   REMARKS
KNOX *+        CLOUDY    75  54  46 W15G26    29.94R
MONTICELLO +   CLOUDY    83  74  76 SW5       29.92S
RENSSELAER +   CLOUDY    81  79  94 CALM      29.92S
VALPARAISO     TSTM      70  66  88 NW6       29.93F

$$

LMZ046-743>745-250300-
SOUTHERN LAKE MICHIGAN

STATION/POSITION TIME  TEMP    WIND        PRES    WAVE
                       AIR SEA DIR/SP/G            HT
                 (UTC) (F)     (DEG/KT/KT) (MB)    (FT)
BURNS HARBOR     0121   73     220/ 20     1012.9S
MICHIGAN CITY    0100   74     210/ 26/ 29   N/A
5NW MICH CITY    0100   75 74  260/ 23/ 33   N/A     2

$$

INZ004-005-014>016-021>024-250300-
NORTH CENTRAL INDIANA

CITY           SKY/WX    TMP DP  RH WIND       PRES   REMARKS
GOSHEN         CLEAR     83  75  77 S7        29.91R
SOUTH BEND     CLOUDY    83  77  82 SW10      29.89S

$$

INZ006>009-017-018-025>027-250300-
NORTHEAST INDIANA

CITY           SKY/WX    TMP DP  RH WIND       PRES   REMARKS
ANGOLA *+        N/A     82  75  78 S6        29.93R
FORT WAYNE     MOCLDY    80  75  84 SW6       29.93R

$$

INZ028-029-035-036-043>045-051>053-250300-
WEST CENTRAL INDIANA

CITY           SKY/WX    TMP DP  RH WIND       PRES   REMARKS
CRAWFORDSVL +  CLEAR     77  77 100 S6        29.95S
LAFAYETTE      CLEAR     83  78  85 SW3       29.93R
TERRE HAUTE    PTCLDY    83  76  79 S5        29.95R

$$

INZ030>032-037>040-046>048-054>057-064-065-250300-
CENTRAL INDIANA

CITY           SKY/WX    TMP DP  RH WIND       PRES   REMARKS
COLUMBUS       CLEAR     82  79  89 SW6       29.96R
INDIANAPOLIS   PTCLDY    83  76  79 SW6       29.96R
-EAGLE CREEK   PTCLDY    85  75  72 SW5       29.95R
KOKOMO *+      CLEAR     82  73  74 SW9       29.95R
SHELBYVILLE    CLEAR     83  76  79 S6        29.95R

$$

INZ033-034-041-042-049-050-058-059-250300-
EAST CENTRAL INDIANA

CITY           SKY/WX    TMP DP  RH WIND       PRES   REMARKS
MUNCIE         CLEAR     85  76  74 SW6       29.96R

$$

INZ060-061-067>069-081>083-085>088-250300-
SOUTHWEST INDIANA

CITY           SKY/WX    TMP DP  RH WIND       PRES   REMARKS
EVANSVILLE     CLEAR     85  75  72 S3        29.96R
HUNTINGBURG *+ CLEAR     81  75  83 S3        29.97R

$$

INZ062-063-066-070>080-084-089>092-250300-
SOUTH CENTRAL AND SOUTHEAST INDIANA

CITY           SKY/WX    TMP DP  RH WIND       PRES   REMARKS
BLOOMINGTON    CLEAR     82  75  79 SW7       29.96R
MADISON *+     CLEAR     81  77  89 CALM      30.01R

$$





USA.gov is the U.S. government's official web portal to all federal, state and local government web resources and services.